sat.trackr.live / text

‹ back to catalog

STARLINK-2570

NORAD 48405 · 2021-038BE

PAYLOAD ACTIVE UNKNOWN

§ Identity

Operator
Country
US
Launch date
2021-05-04
Launch site
AFETR
Launch vehicle
Mass (kg)
RCS (m²)

Purposes: comms

External: N2YO · Heavens-Above · Gunter

§ Orbital elements

Epoch: 2026-05-24T22:42:23.946336Z

Period
94.01 min
Inclination
53.1600°
Eccentricity
0.0001597
Mean motion
15.31679517 rev/d
Perigee alt
469.7 km
Apogee alt
471.9 km
Semi-major
6,848.9 km
B*
7.1464e-4
RAAN
338.1794°
Arg perigee
81.5627°
Mean anomaly
278.5555°
Rev number
27,911

§ Raw data

STARLINK-25701 48405U 21038BE  26144.94611049  .00021862  00000+0  71464-3 0  99992 48405  53.1600 338.1794 0001597  81.5627 278.5555 15.31679517279116

JSON: /api/v1/satellites/48405 · /tle

For live sub-satellite position, see the globe view (requires WebGL).

§ Visibility from observer

Set your observer location to see the next 7 days of passes ≥ 10°. The values pass through the URL so the page stays shareable.

No JS? Fill the form by hand. The geolocation button needs JavaScript.